PROFILE

 METAR AND TAF INFORMATION
ADDS - METARS form results

(0355 UTC 13 July 2020)
http://aviationweather.gov/metar/data/
 
ENTC 130350Z 36002KT 9999 FEW013 BKN017 11/09 Q1017 RMK WIND 2600FT 00000KT
ENTC 130320Z VRB02KT 9999 FEW013 BKN017 11/09 Q1017 RMK WIND 2600FT VRB02KT
TAF ENTC 1300/1324 02008KT 9999 FEW015 BKN030 TEMPO 1300/1309 BKN012 

 AIRPORT MAP

 RUNWAY INFORMATION
Runway 01 Runway length 7848 ft Runway width 148 ft
Runway elevation 25 ft Runway displaced threshold 0 ft Runway heading 13
Runway 19 Runway length 7848 ft Runway width 148 ft
Runway elevation 13 ft Runway displaced threshold 1286 ft Runway heading 193

 AIRPORT FREQUENCIES
Type APP Name APP Frequency 123.75 MHZ
Type ATIS Name ATIS Frequency 126.125 MHZ
Type TWR Name TWR Frequency 118.3 MHZ

 AIRPORT NEAR NAVIGATION AIDS
Type NDB Name Kobbe Frequency 283 KHZ
Type NDB Name Kvalsund Frequency 362 KHZ
Type NDB Name Lanes Frequency 268 KHZ
Type VOR-DME Name Tromso Frequency 113800 KHZ